EN

Hourly Weather Alkuzhinskie Borki

Today, 28 January, Thursday

Time Temperature Precipitation Wind Pressure Humidity
00:00 -1°C° 0.2 mm 5 mps 749 mmHg 95%
01:00 -1°C° 0.5 mm 5 mps 748 mmHg 95%
02:00 -1°C° 0.5 mm 5 mps 748 mmHg 95%
03:00 -1°C° 0.5 mm 5 mps 748 mmHg 95%
04:00 -2°C° 0.1 mm 5 mps 748 mmHg 94%
05:00 -4°C° 0.1 mm 5 mps 747 mmHg 92%
06:00 -4°C° 0.1 mm 5 mps 747 mmHg 91%
07:00 -4°C° 0 mm 5 mps 747 mmHg 91%
08:00 -3°C° 0 mm 4 mps 747 mmHg 91%
09:00 -3°C° 0 mm 4 mps 747 mmHg 91%
10:00 -3°C° 0 mm 4 mps 747 mmHg 91%
11:00 -3°C° 0 mm 4 mps 747 mmHg 91%
12:00 -3°C° 0 mm 4 mps 747 mmHg 91%
13:00 -4°C° 0 mm 5 mps 747 mmHg 91%
14:00 -4°C° 0 mm 5 mps 747 mmHg 91%
15:00 -4°C° 0 mm 5 mps 747 mmHg 91%
16:00 -4°C° 0 mm 5 mps 747 mmHg 91%
17:00 -4°C° 0 mm 5 mps 747 mmHg 92%
18:00 -5°C° 0 mm 5 mps 747 mmHg 92%
19:00 -5°C° 0 mm 5 mps 747 mmHg 92%
20:00 -4°C° 0 mm 5 mps 747 mmHg 92%
21:00 -4°C° 0 mm 5 mps 746 mmHg 92%
22:00 -3°C° 0 mm 4 mps 746 mmHg 92%
23:00 -3°C° 0 mm 4 mps 746 mmHg 92%

Tomorrow, 29 January, Friday

Time Temperature Precipitation Wind Pressure Humidity
00:00 -3°C° 0 mm 4 mps 746 mmHg 93%
01:00 -4°C° 0 mm 4 mps 745 mmHg 93%
02:00 -4°C° 0 mm 4 mps 745 mmHg 93%
03:00 -4°C° 0 mm 4 mps 745 mmHg 93%
04:00 -4°C° 0.1 mm 4 mps 744 mmHg 94%
05:00 -4°C° 0.1 mm 4 mps 744 mmHg 95%
06:00 -4°C° 0.1 mm 4 mps 743 mmHg 96%
07:00 -3°C° 0.1 mm 4 mps 743 mmHg 95%
08:00 -3°C° 0.1 mm 4 mps 743 mmHg 94%
09:00 -2°C° 0.1 mm 4 mps 743 mmHg 94%
10:00 -2°C° 0 mm 4 mps 743 mmHg 92%
11:00 -1°C° 0 mm 4 mps 743 mmHg 90%
12:00 -1°C° 0 mm 4 mps 743 mmHg 88%
13:00 -1°C° 0 mm 5 mps 743 mmHg 87%
14:00 -2°C° 0 mm 5 mps 743 mmHg 86%
15:00 -2°C° 0 mm 5 mps 743 mmHg 86%
16:00 -2°C° 0 mm 5 mps 743 mmHg 86%
17:00 -2°C° 0 mm 5 mps 742 mmHg 86%
18:00 -4°C° 0 mm 5 mps 742 mmHg 86%
19:00 -4°C° 0 mm 5 mps 742 mmHg 88%
20:00 -4°C° 0 mm 5 mps 742 mmHg 89%
21:00 -4°C° 0 mm 5 mps 741 mmHg 91%
22:00 -4°C° 0.1 mm 5 mps 741 mmHg 92%
23:00 -4°C° 0.1 mm 5 mps 741 mmHg 93%

Day after tomorrow, 30 January, Saturday

Time Temperature Precipitation Wind Pressure Humidity
00:00 -4°C° 0.1 mm 5 mps 741 mmHg 94%
01:00 -4°C° 0.1 mm 5 mps 741 mmHg 92%
02:00 -5°C° 0.1 mm 5 mps 740 mmHg 89%
03:00 -5°C° 0.1 mm 5 mps 740 mmHg 87%
04:00 -5°C° 0.2 mm 5 mps 739 mmHg 90%
05:00 -5°C° 0.2 mm 5 mps 739 mmHg 92%
06:00 -4°C° 0.2 mm 5 mps 738 mmHg 95%
07:00 -4°C° 0.7 mm 5 mps 738 mmHg 95%
08:00 -4°C° 0.7 mm 5 mps 738 mmHg 95%
09:00 -4°C° 0.7 mm 5 mps 738 mmHg 95%
10:00 -4°C° 0.3 mm 5 mps 738 mmHg 93%
11:00 -5°C° 0.3 mm 6 mps 739 mmHg 90%
12:00 -5°C° 0.3 mm 6 mps 740 mmHg 87%
13:00 -6°C° 0 mm 5 mps 741 mmHg 87%
14:00 -6°C° 0 mm 5 mps 741 mmHg 87%
15:00 -5°C° 0 mm 4 mps 742 mmHg 87%
16:00 -7°C° 0 mm 4 mps 743 mmHg 88%
17:00 -7°C° 0 mm 3 mps 743 mmHg 89%
18:00 -7°C° 0 mm 3 mps 743 mmHg 91%
19:00 -7°C° 0 mm 3 mps 744 mmHg 91%
20:00 -8°C° 0 mm 4 mps 744 mmHg 91%
21:00 -7°C° 0 mm 4 mps 744 mmHg 92%
22:00 -7°C° 0 mm 4 mps 744 mmHg 91%
23:00 -7°C° 0 mm 4 mps 743 mmHg 90%

31 January, Sunday

Time Temperature Precipitation Wind Pressure Humidity
00:00 -7°C° 0 mm 4 mps 743 mmHg 90%
01:00 -5°C° 0.1 mm 4 mps 742 mmHg 92%
02:00 -5°C° 0.1 mm 5 mps 742 mmHg 94%
03:00 -4°C° 0.1 mm 5 mps 741 mmHg 96%
04:00 -3°C° 0.3 mm 6 mps 741 mmHg 96%
05:00 -2°C° 0.3 mm 7 mps 740 mmHg 96%
06:00 -1°C° 0.3 mm 8 mps 739 mmHg 95%
07:00 -2°C° 0 mm 8 mps 739 mmHg 89%
08:00 -2°C° 0 mm 8 mps 739 mmHg 83%
09:00 -2°C° 0 mm 8 mps 738 mmHg 77%
10:00 -2°C° 0.2 mm 8 mps 738 mmHg 82%
11:00 -3°C° 0.2 mm 9 mps 737 mmHg 88%
12:00 -4°C° 0.2 mm 10 mps 736 mmHg 94%
13:00 -3°C° 1 mm 10 mps 735 mmHg 95%
14:00 -3°C° 1 mm 10 mps 734 mmHg 96%
15:00 -3°C° 1 mm 10 mps 733 mmHg 97%
16:00 -3°C° 0.6 mm 9 mps 732 mmHg 94%
17:00 -2°C° 0.6 mm 8 mps 732 mmHg 91%
18:00 -2°C° 0.6 mm 7 mps 732 mmHg 89%
19:00 -4°C° 0.4 mm 8 mps 732 mmHg 90%
20:00 -4°C° 0.4 mm 8 mps 733 mmHg 91%
21:00 -5°C° 0.4 mm 8 mps 733 mmHg 92%
22:00 -6°C° 0.1 mm 9 mps 735 mmHg 91%
23:00 -8°C° 0.1 mm 9 mps 736 mmHg 89%

1 February, Monday

Time Temperature Precipitation Wind Pressure Humidity
00:00 -9°C° 0.1 mm 9 mps 738 mmHg 87%
01:00 -9°C° 0 mm 9 mps 740 mmHg 86%
02:00 -10°C° 0 mm 8 mps 741 mmHg 86%
03:00 -11°C° 0 mm 8 mps 743 mmHg 85%
04:00 -11°C° 0 mm 7 mps 744 mmHg 86%
05:00 -11°C° 0 mm 7 mps 744 mmHg 87%
06:00 -10°C° 0 mm 6 mps 745 mmHg 88%
07:00 -10°C° 0 mm 6 mps 746 mmHg 89%
08:00 -11°C° 0 mm 5 mps 747 mmHg 89%
09:00 -11°C° 0 mm 5 mps 748 mmHg 90%
10:00 -11°C° 0 mm 5 mps 749 mmHg 90%
11:00 -10°C° 0 mm 5 mps 750 mmHg 89%
12:00 -10°C° 0 mm 5 mps 750 mmHg 89%
13:00 -9°C° 0 mm 4 mps 751 mmHg 89%
14:00 -8°C° 0 mm 3 mps 751 mmHg 89%
15:00 -6°C° 0 mm 2 mps 751 mmHg 89%
16:00 -7°C° 0 mm 2 mps 752 mmHg 91%
17:00 -7°C° 0 mm 2 mps 752 mmHg 92%
18:00 -8°C° 0 mm 2 mps 752 mmHg 93%
19:00 -8°C° 0 mm 3 mps 752 mmHg 92%
20:00 -8°C° 0 mm 3 mps 751 mmHg 91%
21:00 -8°C° 0 mm 4 mps 751 mmHg 90%
22:00 -8°C° 0.7 mm 4 mps 750 mmHg 91%
23:00 -7°C° 0.7 mm 5 mps 749 mmHg 93%

2 February, Tuesday

Time Temperature Precipitation Wind Pressure Humidity
00:00 -8°C° 0.7 mm 6 mps 749 mmHg 95%
01:00 -6°C° 0.8 mm 6 mps 747 mmHg 95%
02:00 -5°C° 0.8 mm 6 mps 746 mmHg 95%
03:00 -4°C° 0.8 mm 6 mps 745 mmHg 95%
04:00 -3°C° 0.2 mm 6 mps 744 mmHg 96%
05:00 -1°C° 0.2 mm 5 mps 743 mmHg 97%
06:00 0°C° 0.2 mm 5 mps 743 mmHg 98%
07:00 0°C° 0.7 mm 5 mps 742 mmHg 98%
08:00 +1°C° 0.7 mm 6 mps 741 mmHg 98%
09:00 +1°C° 0.7 mm 6 mps 741 mmHg 99%
10:00 +1°C° 0.7 mm 6 mps 740 mmHg 99%
11:00 +1°C° 0.7 mm 6 mps 740 mmHg 99%
12:00 +1°C° 0.7 mm 6 mps 740 mmHg 99%
13:00 +1°C° 0 mm 6 mps 740 mmHg 97%
14:00 -1°C° 0 mm 6 mps 740 mmHg 96%
15:00 -1°C° 0 mm 6 mps 740 mmHg 95%
16:00 -1°C° 0 mm 7 mps 740 mmHg 95%
17:00 -2°C° 0 mm 7 mps 741 mmHg 95%
18:00 -2°C° 0 mm 7 mps 742 mmHg 95%
19:00 -3°C° 0.1 mm 7 mps 743 mmHg 92%
20:00 -6°C° 0.1 mm 7 mps 743 mmHg 89%
21:00 -7°C° 0.1 mm 7 mps 744 mmHg 86%
22:00 -8°C° 0 mm 7 mps 745 mmHg 86%
23:00 -8°C° 0 mm 6 mps 746 mmHg 87%
Show more